QPF
0.03 0.03 0.03 0.02 0.03 0.04 0.03 0.03 0.03 0.05 0.05 0.05 0.05 0.05 0.06 0.08 0.09 0.07 0.06 0.05 0.06 0.06 0.05 0.05 0.04 0.04 0.04 0.04 0.04 0.03 0.03 0.04 0.03 0.03 0.03 0.03 0.03 0.02 0.02 0.02 0.02 0.02 0.03
0.02 0.02 0.03 0.03 0.03 0.04 0.03 0.04 0.04 0.05 0.05 0.04 0.03 0.03 0.05 0.06 0.08 0.10 0.12 0.11 0.09 0.09 0.07 0.06 0.05 0.04 0.05 0.06 0.06 0.05 0.04 0.04 0.03 0.02 0.02 0.03 0.03 0.03 0.03 0.02 0.02 0.03 0.03
0.02 0.02 0.02 0.02 0.02 0.03 0.04 0.04 0.04 0.04 0.04 0.04 0.03 0.03 0.04 0.06 0.07 0.07 0.13 0.18 0.15 0.12 0.09 0.08 0.07 0.06 0.06 0.06 0.06 0.07 0.05 0.04 0.03 0.03 0.04 0.04 0.03 0.04 0.03 0.02 0.02 0.02 0.03
0.02 0.01 0.02 0.01 0.02 0.03 0.04 0.04 0.04 0.04 0.04 0.04 0.05 0.06 0.06 0.07 0.07 0.04 0.05 0.07 0.09 0.09 0.10 0.11 0.11 0.09 0.08 0.07 0.05 0.06 0.07 0.07 0.05 0.04 0.06 0.05 0.05 0.04 0.03 0.03 0.03 0.03 0.04
0.01 0.01 0.03 0.03 0.03 0.04 0.04 0.03 0.03 0.03 0.03 0.05 0.05 0.06 0.06 0.05 0.05 0.04 0.05 0.07 0.07 0.07 0.08 0.07 0.08 0.09 0.10 0.09 0.07 0.06 0.06 0.07 0.06 0.06 0.06 0.06 0.06 0.05 0.03 0.03 0.04 0.05 0.05
0.01 0.01 0.01 0.02 0.02 0.02 0.03 0.04 0.04 0.03 0.03 0.06 0.06 0.05 0.05 0.04 0.05 0.06 0.07 0.08 0.07 0.08 0.06 0.04 0.04 0.05 0.07 0.09 0.09 0.07 0.06 0.06 0.06 0.05 0.05 0.06 0.06 0.06 0.04 0.03 0.03 0.03 0.04
0.01 0.01 0.01 0.01 0.02 0.03 0.03 0.03 0.04 0.04 0.04 0.05 0.05 0.06 0.06 0.06 0.07 0.09 0.10 0.09 0.07 0.07 0.05 0.05 0.06 0.05 0.05 0.06 0.06 0.07 0.07 0.06 0.06 0.05 0.05 0.07 0.07 0.07 0.05 0.03 0.03 0.03 0.04
0.03 0.02 0.01 0.01 0.02 0.03 0.01 0.02 0.06 0.06 0.05 0.05 0.06 0.06 0.06 0.06 0.07 0.08 0.09 0.08 0.07 0.04 0.03 0.03 0.05 0.05 0.05 0.04 0.04 0.04 0.05 0.06 0.07 0.08 0.08 0.07 0.08 0.08 0.07 0.05 0.03 0.03 0.03
0.04 0.04 0.03 0.03 0.03 0.03 0.04 0.05 0.07 0.07 0.07 0.06 0.06 0.06 0.05 0.04 0.04 0.05 0.06 0.07 0.07 0.06 0.04 0.03 0.03 0.03 0.03 0.04 0.03 0.04 0.06 0.08 0.11 0.11 0.10 0.09 0.08 0.08 0.07 0.05 0.03 0.03 0.03
0.04 0.05 0.05 0.06 0.06 0.06 0.05 0.06 0.07 0.07 0.08 0.07 0.08 0.07 0.06 0.05 0.04 0.04 0.05 0.04 0.03 0.04 0.04 0.04 0.04 0.03 0.02 0.03 0.04 0.06 0.09 0.14 0.16 0.14 0.12 0.09 0.07 0.06 0.05 0.04 0.04 0.03 0.02
0.04 0.05 0.05 0.06 0.06 0.06 0.05 0.05 0.05 0.04 0.04 0.05 0.06 0.07 0.06 0.05 0.06 0.04 0.03 0.03 0.03 0.03 0.02 0.03 0.04 0.03 0.02 0.02 0.04 0.07 0.09 0.10 0.10 0.10 0.09 0.07 0.05 0.04 0.05 0.03 0.02 0.02 0.02
0.05 0.05 0.04 0.05 0.05 0.04 0.04 0.04 0.03 0.03 0.03 0.03 0.04 0.04 0.04 0.04 0.05 0.05 0.03 0.02 0.02 0.02 0.02 0.02 0.02 0.03 0.03 0.03 0.03 0.04 0.06 0.06 0.06 0.05 0.04 0.04 0.04 0.03 0.02 0.01 0.02 0.02 0.02
0.03 0.04 0.05 0.04 0.04 0.03 0.03 0.03 0.03 0.03 0.03 0.03 0.02 0.02 0.02 0.04 0.06 0.08 0.05 0.02 0.01 0.01 0.01 0.01 0.03 0.05 0.04 0.04 0.04 0.05 0.05 0.07 0.07 0.04 0.05 0.05 0.04 0.03 0.03 0.03 0.03 0.03 0.03
0.03 0.04 0.04 0.04 0.03 0.03 0.03 0.02 0.01 0.02 0.02 0.02 0.01 0.02 0.02 0.03 0.06 0.09 0.07 0.04 0.02 0.01 0.01 0.01 0.01 0.02 0.04 0.06 0.07 0.08 0.07 0.07 0.08 0.07 0.08 0.08 0.05 0.04 0.04 0.03 0.03 0.04 0.04
0.03 0.03 0.03 0.03 0.03 0.03 0.02 0.02 0.02 0.02 0.02 0.02 0.01 0.02 0.02 0.03 0.05 0.08 0.08 0.07 0.05 0.03 0.01 0.01 0.01 0.02 0.03 0.04 0.06 0.05 0.05 0.07 0.08 0.10 0.11 0.08 0.04 0.04 0.03 0.03 0.03 0.03 0.04
0.02 0.02 0.03 0.04 0.04 0.03 0.03 0.04 0.03 0.03 0.03 0.03 0.03 0.02 0.02 0.05 0.07 0.08 0.09 0.09 0.07 0.05 0.03 0.01 0.02 0.04 0.06 0.06 0.07 0.07 0.06 0.07 0.07 0.08 0.06 0.04 0.04 0.03 0.03 0.03 0.03 0.03 0.03
0.01 0.01 0.03 0.05 0.05 0.05 0.05 0.05 0.04 0.03 0.03 0.03 0.03 0.04 0.05 0.07 0.07 0.07 0.09 0.08 0.07 0.05 0.04 0.03 0.03 0.04 0.05 0.07 0.08 0.06 0.04 0.04 0.04 0.07 0.05 0.04 0.04 0.04 0.04 0.04 0.03 0.02 0.01
0.02 0.02 0.03 0.04 0.04 0.05 0.05 0.05 0.05 0.04 0.04 0.03 0.04 0.06 0.07 0.07 0.07 0.07 0.08 0.07 0.06 0.07 0.06 0.05 0.03 0.04 0.04 0.04 0.04 0.05 0.03 0.03 0.03 0.05 0.05 0.04 0.03 0.02 0.02 0.03 0.03 0.02 0.02
0.03 0.03 0.03 0.04 0.06 0.06 0.07 0.07 0.07 0.07 0.06 0.06 0.06 0.06 0.07 0.07 0.07 0.07 0.06 0.06 0.06 0.06 0.05 0.05 0.05 0.06 0.04 0.03 0.04 0.04 0.03 0.04 0.04 0.05 0.05 0.04 0.02 0.02 0.03 0.02 0.02 0.02 0.02
0.04 0.04 0.05 0.07 0.10 0.10 0.10 0.11 0.11 0.11 0.12 0.13 0.11 0.09 0.08 0.08 0.07 0.05 0.07 0.05 0.04 0.04 0.03 0.04 0.04 0.04 0.03 0.03 0.04 0.04 0.04 0.03 0.03 0.03 0.04 0.04 0.03 0.03 0.03 0.03 0.03 0.02 0.03
0.03 0.04 0.05 0.06 0.06 0.08 0.09 0.10 0.11 0.15 0.19 0.20 0.18 0.15 0.12 0.13 0.11 0.08 0.07 0.07 0.05 0.04 0.03 0.04 0.04 0.03 0.02 0.02 0.03 0.04 0.04 0.04 0.03 0.02 0.02 0.02 0.03 0.03 0.03 0.03 0.04 0.04 0.03
0.02 0.03 0.03 0.04 0.05 0.06 0.07 0.07 0.08 0.10 0.14 0.14 0.11 0.11 0.11 0.11 0.10 0.10 0.09 0.10 0.09 0.06 0.03 0.03 0.03 0.02 0.02 0.02 0.02 0.04 0.04 0.04 0.03 0.03 0.03 0.02 0.02 0.03 0.03 0.02 0.03 0.04 0.04
0.02 0.02 0.02 0.04 0.05 0.05 0.07 0.07 0.08 0.08 0.08 0.09 0.08 0.08 0.08 0.07 0.07 0.07 0.08 0.09 0.09 0.07 0.05 0.03 0.02 0.02 0.02 0.03 0.03 0.03 0.03 0.02 0.02 0.02 0.04 0.03 0.02 0.02 0.03 0.06 0.05 0.05 0.05
0.01 0.02 0.03 0.05 0.05 0.05 0.07 0.07 0.07 0.07 0.06 0.06 0.08 0.08 0.06 0.06 0.05 0.05 0.06 0.06 0.05 0.05 0.05 0.04 0.02 0.02 0.02 0.03 0.03 0.02 0.02 0.02 0.01 0.02 0.03 0.03 0.04 0.03 0.03 0.03 0.04 0.04 0.06
0.02 0.03 0.04 0.04 0.04 0.04 0.05 0.06 0.07 0.06 0.06 0.06 0.07 0.08 0.06 0.05 0.04 0.05 0.06 0.05 0.04 0.03 0.05 0.04 0.03 0.02 0.02 0.02 0.03 0.02 0.02 0.02 0.02 0.02 0.03 0.03 0.03 0.03 0.03 0.02 0.03 0.03 0.03
0.04 0.04 0.03 0.02 0.02 0.02 0.04 0.07 0.06 0.07 0.06 0.06 0.06 0.06 0.06 0.06 0.04 0.04 0.03 0.03 0.03 0.03 0.05 0.05 0.05 0.04 0.02 0.02 0.02 0.02 0.02 0.03 0.04 0.03 0.03 0.04 0.03 0.04 0.03 0.03 0.03 0.04 0.03
MSLP
1016.50 1016.75 1016.93 1017.06 1017.15 1017.20 1017.25 1017.30 1017.36 1017.43 1017.50 1017.55 1017.60 1017.62 1017.64 1017.66 1017.70 1017.78 1017.91 1018.09 1018.31 1018.57 1018.84 1019.11 1019.36 1019.58 1019.76 1019.92 1020.04 1020.14 1020.23 1020.32 1020.43 1020.54 1020.67 1020.81 1020.94 1021.05 1021.14 1021.18 1021.19 1021.15 1021.09
1016.50 1016.70 1016.86 1016.99 1017.07 1017.13 1017.19 1017.24 1017.30 1017.37 1017.43 1017.49 1017.53 1017.55 1017.56 1017.57 1017.59 1017.64 1017.73 1017.87 1018.06 1018.28 1018.54 1018.80 1019.05 1019.29 1019.48 1019.64 1019.76 1019.86 1019.94 1020.02 1020.12 1020.24 1020.37 1020.52 1020.66 1020.79 1020.90 1020.95 1020.97 1020.94 1020.89
1016.48 1016.64 1016.79 1016.91 1017.00 1017.08 1017.15 1017.21 1017.28 1017.35 1017.41 1017.47 1017.51 1017.54 1017.55 1017.55 1017.55 1017.57 1017.61 1017.70 1017.84 1018.02 1018.23 1018.47 1018.71 1018.94 1019.14 1019.30 1019.43 1019.52 1019.60 1019.68 1019.77 1019.88 1020.01 1020.16 1020.31 1020.46 1020.57 1020.65 1020.69 1020.69 1020.65
1016.46 1016.59 1016.72 1016.84 1016.95 1017.05 1017.14 1017.22 1017.29 1017.36 1017.42 1017.48 1017.53 1017.56 1017.58 1017.57 1017.56 1017.55 1017.55 1017.58 1017.66 1017.78 1017.94 1018.13 1018.34 1018.55 1018.74 1018.91 1019.03 1019.13 1019.21 1019.28 1019.36 1019.46 1019.59 1019.74 1019.89 1020.05 1020.18 1020.27 1020.33 1020.36 1020.35
1016.44 1016.53 1016.65 1016.79 1016.92 1017.04 1017.15 1017.23 1017.31 1017.38 1017.44 1017.50 1017.56 1017.60 1017.62 1017.62 1017.60 1017.56 1017.53 1017.50 1017.51 1017.56 1017.65 1017.78 1017.94 1018.11 1018.28 1018.43 1018.56 1018.66 1018.74 1018.81 1018.89 1018.99 1019.11 1019.25 1019.41 1019.56 1019.70 1019.81 1019.90 1019.95 1019.97
1016.39 1016.46 1016.58 1016.73 1016.88 1017.03 1017.15 1017.25 1017.32 1017.39 1017.45 1017.51 1017.57 1017.62 1017.66 1017.67 1017.65 1017.59 1017.52 1017.45 1017.38 1017.35 1017.35 1017.40 1017.50 1017.62 1017.75 1017.88 1018.00 1018.10 1018.19 1018.27 1018.35 1018.45 1018.56 1018.70 1018.85 1019.00 1019.14 1019.27 1019.37 1019.44 1019.49
1016.28 1016.34 1016.47 1016.63 1016.81 1016.98 1017.12 1017.23 1017.30 1017.37 1017.42 1017.48 1017.54 1017.61 1017.66 1017.68 1017.67 1017.61 1017.51 1017.39 1017.25 1017.13 1017.05 1017.00 1017.01 1017.06 1017.14 1017.24 1017.35 1017.45 1017.54 1017.63 1017.73 1017.83 1017.94 1018.08 1018.22 1018.36 1018.51 1018.64 1018.76 1018.85 1018.92
1016.08 1016.15 1016.29 1016.47 1016.68 1016.87 1017.03 1017.15 1017.22 1017.28 1017.33 1017.39 1017.46 1017.54 1017.61 1017.65 1017.65 1017.59 1017.47 1017.30 1017.10 1016.90 1016.72 1016.57 1016.48 1016.45 1016.47 1016.52 1016.61 1016.70 1016.80 1016.91 1017.01 1017.13 1017.25 1017.38 1017.52 1017.66 1017.80 1017.94 1018.06 1018.17 1018.27
1015.79 1015.86 1016.02 1016.23 1016.46 1016.68 1016.85 1016.98 1017.06 1017.12 1017.16 1017.22 1017.30 1017.39 1017.48 1017.54 1017.56 1017.50 1017.37 1017.17 1016.92 1016.64 1016.37 1016.12 1015.94 1015.81 1015.75 1015.75 1015.80 1015.88 1015.98 1016.10 1016.22 1016.36 1016.49 1016.63 1016.77 1016.91 1017.05 1017.18 1017.30 1017.42 1017.54
1015.40 1015.48 1015.65 1015.88 1016.13 1016.37 1016.56 1016.70 1016.79 1016.84 1016.89 1016.95 1017.04 1017.14 1017.25 1017.34 1017.37 1017.33 1017.20 1016.99 1016.70 1016.36 1016.01 1015.68 1015.40 1015.18 1015.04 1014.97 1014.97 1015.02 1015.11 1015.24 1015.38 1015.53 1015.68 1015.83 1015.98 1016.12 1016.26 1016.39 1016.51 1016.63 1016.75
1014.93 1015.02 1015.20 1015.43 1015.70 1015.94 1016.14 1016.29 1016.38 1016.44 1016.49 1016.55 1016.65 1016.77 1016.90 1017.01 1017.08 1017.06 1016.95 1016.74 1016.44 1016.07 1015.66 1015.26 1014.89 1014.59 1014.36 1014.22 1014.16 1014.17 1014.24 1014.36 1014.51 1014.67 1014.85 1015.01 1015.17 1015.32 1015.46 1015.58 1015.71 1015.83 1015.95
1014.41 1014.49 1014.66 1014.89 1015.15 1015.39 1015.59 1015.74 1015.83 1015.89 1015.95 1016.02 1016.12 1016.25 1016.40 1016.54 1016.65 1016.67 1016.60 1016.42 1016.13 1015.76 1015.33 1014.88 1014.45 1014.07 1013.76 1013.54 1013.41 1013.37 1013.41 1013.50 1013.65 1013.82 1014.01 1014.19 1014.37 1014.53 1014.67 1014.79 1014.91 1015.03 1015.15
1013.87 1013.92 1014.06 1014.27 1014.50 1014.73 1014.92 1015.05 1015.14 1015.20 1015.26 1015.33 1015.43 1015.58 1015.75 1015.93 1016.08 1016.15 1016.13 1016.00 1015.76 1015.42 1014.99 1014.53 1014.07 1013.63 1013.26 1012.96 1012.76 1012.66 1012.64 1012.70 1012.83 1012.99 1013.19 1013.38 1013.57 1013.75 1013.90 1014.03 1014.15 1014.26 1014.37
1013.33 1013.34 1013.44 1013.60 1013.79 1013.98 1014.14 1014.26 1014.34 1014.39 1014.43 1014.50 1014.61 1014.77 1014.96 1015.17 1015.36 1015.50 1015.55 1015.49 1015.31 1015.02 1014.64 1014.20 1013.73 1013.26 1012.84 1012.48 1012.21 1012.04 1011.96 1011.97 1012.07 1012.21 1012.40 1012.60 1012.80 1012.98 1013.15 1013.29 1013.41 1013.51 1013.62
1012.83 1012.78 1012.82 1012.92 1013.05 1013.19 1013.31 1013.40 1013.45 1013.48 1013.52 1013.58 1013.68 1013.84 1014.05 1014.28 1014.51 1014.70 1014.82 1014.84 1014.75 1014.54 1014.23 1013.83 1013.38 1012.92 1012.47 1012.07 1011.75 1011.51 1011.37 1011.33 1011.37 1011.49 1011.65 1011.85 1012.05 1012.24 1012.40 1012.55 1012.67 1012.78 1012.88
1012.36 1012.25 1012.22 1012.25 1012.32 1012.40 1012.47 1012.52 1012.54 1012.55 1012.57 1012.61 1012.70 1012.85 1013.05 1013.29 1013.55 1013.78 1013.96 1014.06 1014.05 1013.93 1013.70 1013.38 1012.98 1012.55 1012.11 1011.69 1011.33 1011.05 1010.86 1010.76 1010.75 1010.82 1010.96 1011.12 1011.31 1011.49 1011.65 1011.80 1011.92 1012.03 1012.13
1011.94 1011.76 1011.66 1011.63 1011.64 1011.67 1011.69 1011.70 1011.68 1011.66 1011.64 1011.66 1011.72 1011.83 1012.01 1012.24 1012.50 1012.75 1012.98 1013.13 1013.20 1013.17 1013.03 1012.79 1012.47 1012.10 1011.69 1011.30 1010.93 1010.63 1010.40 1010.26 1010.20 1010.22 1010.30 1010.43 1010.57 1010.73 1010.87 1011.00 1011.12 1011.22 1011.32
1011.56 1011.33 1011.18 1011.09 1011.05 1011.03 1011.01 1010.98 1010.93 1010.87 1010.81 1010.78 1010.79 1010.86 1010.99 1011.18 1011.41 1011.66 1011.90 1012.09 1012.21 1012.25 1012.20 1012.06 1011.83 1011.53 1011.20 1010.85 1010.52 1010.23 1009.99 1009.82 1009.72 1009.68 1009.70 1009.76 1009.85 1009.95 1010.05 1010.15 1010.25 1010.34 1010.44
1011.23 1010.97 1010.78 1010.66 1010.58 1010.53 1010.47 1010.40 1010.31 1010.21 1010.10 1010.01 1009.97 1009.97 1010.04 1010.16 1010.34 1010.55 1010.76 1010.96 1011.11 1011.21 1011.23 1011.17 1011.04 1010.85 1010.61 1010.35 1010.08 1009.83 1009.60 1009.42 1009.29 1009.20 1009.15 1009.14 1009.14 1009.17 1009.20 1009.24 1009.30 1009.37 1009.47
1010.96 1010.68 1010.49 1010.35 1010.25 1010.18 1010.09 1009.99 1009.85 1009.70 1009.54 1009.38 1009.26 1009.19 1009.17 1009.21 1009.31 1009.46 1009.63 1009.80 1009.96 1010.08 1010.16 1010.18 1010.14 1010.06 1009.93 1009.77 1009.59 1009.41 1009.23 1009.06 1008.91 1008.78 1008.66 1008.55 1008.46 1008.39 1008.33 1008.29 1008.29 1008.33 1008.41
1010.76 1010.50 1010.31 1010.17 1010.07 1009.98 1009.86 1009.72 1009.54 1009.33 1009.11 1008.88 1008.68 1008.52 1008.41 1008.36 1008.37 1008.44 1008.55 1008.68 1008.81 1008.94 1009.05 1009.13 1009.18 1009.19 1009.18 1009.13 1009.06 1008.96 1008.84 1008.71 1008.55 1008.38 1008.20 1008.01 1007.81 1007.63 1007.47 1007.34 1007.26 1007.25 1007.30
1010.68 1010.45 1010.28 1010.15 1010.05 1009.93 1009.79 1009.60 1009.36 1009.09 1008.79 1008.49 1008.20 1007.96 1007.76 1007.63 1007.55 1007.54 1007.57 1007.64 1007.74 1007.85 1007.97 1008.09 1008.20 1008.29 1008.37 1008.43 1008.46 1008.45 1008.41 1008.32 1008.18 1007.99 1007.75 1007.49 1007.20 1006.91 1006.64 1006.41 1006.26 1006.18 1006.20
1010.76 1010.56 1010.42 1010.30 1010.19 1010.04 1009.85 1009.60 1009.30 1008.95 1008.57 1008.19 1007.83 1007.51 1007.23 1007.02 1006.87 1006.79 1006.75 1006.76 1006.80 1006.87 1006.97 1007.09 1007.23 1007.37 1007.51 1007.65 1007.76 1007.84 1007.86 1007.82 1007.71 1007.52 1007.26 1006.95 1006.59 1006.22 1005.86 1005.55 1005.32 1005.19 1005.17
1011.04 1010.88 1010.76 1010.64 1010.50 1010.31 1010.05 1009.73 1009.34 1008.90 1008.45 1007.99 1007.55 1007.17 1006.84 1006.56 1006.36 1006.21 1006.11 1006.05 1006.03 1006.05 1006.10 1006.18 1006.30 1006.44 1006.60 1006.77 1006.93 1007.06 1007.14 1007.16 1007.08 1006.92 1006.67 1006.34 1005.95 1005.54 1005.13 1004.77 1004.49 1004.31 1004.26
1011.55 1011.41 1011.30 1011.16 1010.98 1010.73 1010.39 1009.97 1009.49 1008.96 1008.42 1007.89 1007.39 1006.95 1006.58 1006.27 1006.02 1005.82 1005.66 1005.54 1005.45 1005.39 1005.36 1005.36 1005.41 1005.50 1005.63 1005.78 1005.94 1006.09 1006.20 1006.26 1006.23 1006.11 1005.90 1005.60 1005.23 1004.83 1004.43 1004.06 1003.76 1003.57 1003.50
1012.26 1012.15 1012.03 1011.86 1011.62 1011.29 1010.86 1010.34 1009.76 1009.14 1008.51 1007.92 1007.37 1006.90 1006.49 1006.16 1005.88 1005.64 1005.43 1005.24 1005.07 1004.90 1004.76 1004.65 1004.58 1004.57 1004.60 1004.68 1004.79 1004.92 1005.03 1005.11 1005.13 1005.07 1004.93 1004.70 1004.41 1004.07 1003.72 1003.39 1003.12 1002.95 1002.88
Thickness
5770 5769 5769 5768 5768 5767 5767 5767 5767 5766 5766 5766 5767 5766 5765 5764 5763 5762 5761 5760 5758 5757 5756 5754 5752 5751 5749 5747 5745 5744 5742 5740 5738 5736 5735 5733 5732 5730 5728 5726 5725 5724 5723
5771 5770 5769 5768 5768 5768 5768 5767 5766 5766 5766 5765 5765 5766 5765 5764 5763 5762 5761 5760 5759 5757 5755 5754 5752 5751 5749 5747 5746 5743 5742 5740 5738 5736 5734 5733 5731 5729 5728 5726 5725 5723 5722
5771 5770 5768 5767 5767 5767 5767 5767 5766 5765 5765 5764 5764 5765 5764 5764 5763 5762 5761 5760 5758 5757 5755 5754 5752 5751 5749 5748 5745 5743 5741 5740 5738 5736 5734 5732 5730 5729 5727 5726 5724 5723 5721
5771 5769 5768 5767 5767 5767 5767 5766 5765 5763 5762 5762 5762 5763 5763 5763 5762 5761 5761 5759 5758 5757 5756 5754 5753 5751 5749 5747 5745 5743 5741 5739 5737 5736 5734 5732 5730 5728 5726 5725 5723 5722 5721
5771 5770 5768 5767 5767 5766 5765 5765 5763 5762 5760 5760 5761 5761 5761 5761 5761 5761 5759 5757 5757 5756 5756 5755 5753 5751 5749 5747 5746 5744 5741 5739 5737 5736 5734 5731 5729 5728 5726 5725 5723 5721 5720
5770 5769 5768 5767 5766 5764 5763 5762 5761 5761 5759 5759 5760 5759 5759 5759 5760 5759 5759 5757 5756 5756 5756 5754 5753 5751 5749 5747 5746 5744 5742 5739 5737 5735 5734 5731 5729 5727 5726 5724 5722 5721 5720
5770 5769 5767 5766 5764 5763 5761 5761 5760 5758 5757 5758 5754 5752 5755 5758 5758 5758 5758 5757 5756 5756 5755 5753 5752 5750 5749 5747 5746 5744 5742 5740 5738 5736 5734 5731 5729 5727 5725 5723 5722 5720 5719
5769 5768 5766 5764 5764 5762 5761 5760 5758 5755 5755 5756 5751 5745 5742 5746 5752 5757 5756 5756 5755 5755 5754 5752 5751 5749 5748 5747 5746 5744 5742 5740 5738 5736 5734 5732 5730 5727 5725 5723 5721 5720 5719
5769 5768 5766 5765 5763 5761 5759 5758 5757 5755 5751 5753 5753 5746 5739 5736 5742 5749 5752 5753 5752 5751 5751 5751 5749 5748 5747 5747 5746 5745 5742 5740 5738 5736 5734 5731 5730 5727 5725 5723 5721 5719 5718
5769 5768 5766 5765 5763 5762 5760 5759 5758 5756 5753 5749 5750 5751 5748 5745 5738 5738 5744 5748 5749 5749 5749 5749 5748 5746 5746 5746 5745 5744 5742 5740 5737 5735 5733 5731 5729 5726 5724 5722 5720 5718 5716
5768 5767 5766 5764 5763 5761 5760 5759 5757 5756 5753 5750 5748 5747 5746 5744 5742 5736 5734 5739 5743 5745 5746 5746 5745 5744 5744 5743 5742 5741 5740 5738 5735 5733 5731 5729 5727 5724 5722 5720 5718 5716 5715
5765 5765 5765 5764 5762 5761 5759 5758 5757 5755 5753 5751 5749 5747 5744 5741 5739 5736 5733 5733 5734 5739 5742 5742 5742 5741 5741 5740 5740 5739 5737 5734 5732 5731 5729 5727 5724 5722 5720 5718 5716 5715 5713
5763 5763 5763 5762 5761 5760 5759 5758 5756 5755 5753 5751 5749 5747 5746 5744 5742 5738 5733 5731 5731 5734 5736 5737 5738 5738 5738 5737 5737 5736 5733 5731 5729 5728 5726 5724 5721 5719 5718 5716 5714 5713 5711
5763 5763 5762 5761 5761 5760 5759 5757 5755 5754 5753 5751 5750 5748 5746 5744 5742 5739 5735 5730 5725 5726 5729 5731 5734 5734 5734 5734 5733 5733 5730 5728 5726 5724 5722 5720 5718 5716 5715 5714 5712 5710 5709
5763 5762 5761 5760 5759 5758 5757 5756 5753 5752 5751 5749 5748 5746 5744 5743 5742 5740 5737 5733 5725 5719 5721 5727 5727 5730 5730 5729 5729 5728 5727 5725 5723 5721 5719 5717 5715 5714 5713 5711 5709 5707 5706
5761 5760 5759 5758 5757 5756 5755 5753 5752 5751 5748 5747 5746 5744 5742 5741 5739 5738 5736 5732 5729 5723 5718 5723 5724 5726 5725 5725 5724 5724 5723 5721 5719 5718 5716 5714 5712 5711 5710 5708 5706 5704 5702
5758 5757 5756 5755 5754 5753 5752 5750 5748 5748 5746 5744 5743 5741 5739 5739 5737 5735 5733 5730 5727 5723 5718 5720 5722 5722 5721 5719 5719 5719 5718 5717 5716 5714 5712 5710 5708 5707 5705 5704 5702 5700 5698
5755 5755 5753 5752 5751 5750 5749 5746 5745 5744 5742 5741 5739 5738 5736 5736 5733 5732 5730 5727 5725 5723 5718 5715 5716 5716 5715 5715 5714 5713 5712 5712 5711 5709 5708 5706 5704 5703 5701 5700 5698 5696 5694
5751 5751 5750 5748 5747 5746 5745 5744 5743 5741 5740 5738 5737 5735 5733 5731 5729 5728 5726 5724 5722 5721 5717 5713 5712 5711 5710 5710 5708 5707 5706 5705 5705 5703 5702 5701 5700 5698 5697 5695 5693 5691 5690
5746 5746 5746 5745 5744 5743 5742 5741 5739 5737 5736 5735 5734 5732 5731 5729 5727 5725 5723 5721 5719 5715 5713 5709 5707 5705 5704 5704 5701 5699 5697 5697 5696 5697 5696 5695 5694 5693 5691 5690 5688 5687 5685
5743 5742 5741 5740 5740 5739 5738 5736 5735 5733 5731 5730 5729 5728 5727 5727 5725 5723 5721 5718 5715 5711 5707 5704 5701 5699 5697 5695 5694 5693 5690 5688 5688 5688 5687 5687 5686 5685 5685 5684 5683 5681 5680
5737 5736 5736 5735 5734 5734 5733 5732 5731 5728 5727 5725 5723 5722 5722 5721 5720 5719 5718 5715 5713 5708 5703 5699 5696 5694 5692 5691 5689 5687 5683 5680 5678 5681 5679 5678 5679 5677 5677 5677 5677 5676 5674
5731 5730 5729 5728 5727 5727 5727 5726 5726 5724 5721 5720 5718 5716 5716 5716 5714 5712 5711 5710 5708 5706 5704 5699 5693 5691 5689 5688 5685 5682 5679 5676 5674 5675 5673 5670 5671 5669 5670 5671 5671 5669 5667
5725 5724 5723 5722 5721 5722 5721 5720 5719 5717 5715 5714 5713 5711 5709 5707 5707 5705 5704 5702 5700 5698 5697 5695 5692 5690 5688 5685 5683 5680 5676 5672 5670 5669 5667 5663 5663 5662 5664 5663 5663 5662 5660
5719 5717 5716 5715 5714 5714 5715 5714 5712 5709 5707 5706 5706 5705 5703 5701 5700 5699 5696 5693 5691 5691 5691 5689 5688 5685 5683 5680 5677 5673 5668 5664 5660 5660 5659 5657 5656 5655 5655 5655 5656 5655 5654
5712 5711 5709 5708 5708 5707 5708 5707 5706 5702 5699 5698 5697 5697 5696 5694 5692 5690 5687 5684 5682 5682 5681 5681 5679 5677 5675 5673 5671 5668 5664 5658 5654 5652 5653 5650 5649 5647 5645 5648 5648 5648 5646